Location: Unspecified
(0.0000°N, 0.0000°E)
Time: 14:13:47
(UTC+02:00)

IUS-9 SRM-1 - Visible Passes

Search period start: 22 October 2014 00:00
Search period end: 31 October 2014 23:00
Orbit: 251 x 20610 km, 26.5° (Epoch: 21 October)

Date Brightness Start Highest point End Pass type
(mag) Time Alt. Az. Time Alt. Az. Time Alt. Az.
22 Oct 7.4 02:50:05 52° NE 02:50:05 52° NE 03:02:39 10° NE visible
22 Oct 7.4 22:15:18 10° WSW 02:56:22 52° NE 03:08:44 10° NE visible
23 Oct 7.3 22:22:25 10° WSW 03:02:32 52° NE 03:14:36 10° NE visible
24 Oct 7.3 22:29:21 10° WSW 03:08:28 52° NE 03:20:15 10° NE visible
25 Oct 7.1 15:54:00 10° WSW 16:03:12 46° S 18:58:30 10° ESE visible
25 Oct 7.3 22:36:05 10° WSW 02:14:11 51° NNE 02:25:40 10° NE visible
26 Oct 7.2 14:59:25 10° WSW 15:09:13 45° S 18:33:59 10° ESE visible
26 Oct 7.2 21:42:38 10° WSW 02:19:40 50° NNE 02:30:53 10° NE visible
27 Oct 7.3 15:04:39 10° WSW 15:15:05 44° S 18:56:12 10° E visible
27 Oct 7.2 21:49:00 10° WSW 02:24:57 49° NNE 02:35:52 10° NE visible
28 Oct 7.4 15:09:40 10° WSW 15:20:48 43° S 19:12:39 10° E visible
28 Oct 7.2 21:55:10 10° WSW 02:30:00 48° NNE 02:40:39 10° NE visible
29 Oct 7.5 15:14:31 10° WSW 15:26:22 43° S 19:25:53 10° E visible
29 Oct 7.1 22:01:09 10° WSW 02:34:50 47° NNE 02:45:13 10° NE visible
30 Oct 7.6 15:19:09 10° WSW 15:31:47 42° S 19:36:59 10° E visible
30 Oct 7.1 22:06:56 10° WSW 02:39:28 46° NNE 02:49:35 10° NE visible
31 Oct 7.6 15:23:36 10° WSW 15:37:02 42° S 19:46:36 10° E visible
31 Oct 10.1 22:12:32 10° WSW 23:00:00 31° WSW 23:00:00 31° WSW visible
